Temperature
10 10 10 10 10 10 10 10 10 10 10 10 10 11 11 11 11 11 11 11 11 11 11 12 12 13 13 14 14 14 15 15 16 16 15 14 14 14 14 14 14 14 15
10 9 9 9 9 9 9 9 9 9 9 9 10 10 10 10 10 10 10 10 10 10 11 11 11 12 13 13 13 14 14 14 15 15 15 14 14 14 13 13 13 13 14
9 9 8 8 8 8 8 8 8 8 8 9 9 9 10 10 10 10 10 10 10 10 10 10 11 11 12 12 13 13 13 14 14 14 14 14 13 13 13 13 13 13 13
8 8 8 7 7 7 7 7 7 7 8 8 8 9 9 9 10 10 10 10 10 10 10 10 10 10 11 11 12 13 13 13 13 14 14 14 13 13 13 12 12 12 12
7 7 7 7 7 7 7 7 7 7 7 7 8 8 8 9 9 10 10 10 10 10 9 9 10 10 10 11 11 12 12 13 13 13 14 14 13 13 12 12 12 12 11
7 7 7 6 6 6 6 6 6 6 6 7 7 7 8 8 9 9 10 10 10 10 9 9 9 10 10 10 11 11 11 12 12 13 13 13 13 13 13 12 12 12 11
6 6 6 6 6 6 6 6 6 6 6 6 6 6 7 8 8 9 9 9 10 10 9 9 10 10 9 10 10 10 11 11 12 12 13 13 13 13 13 12 12 12 11
6 6 6 6 6 6 6 6 6 6 6 6 6 6 6 7 7 8 8 9 9 9 9 9 9 10 9 9 10 10 10 11 11 12 12 13 13 13 13 13 12 12 11
6 6 6 6 6 6 6 6 6 5 5 5 6 6 6 6 7 7 8 8 8 9 9 9 9 9 9 9 9 10 10 10 11 11 12 12 12 12 12 12 12 11 11
6 6 6 6 6 6 6 6 6 5 5 5 5 6 6 6 6 7 7 7 8 8 8 9 9 9 9 9 9 9 10 10 11 11 11 12 12 12 12 12 12 12 11
6 6 6 6 6 6 6 6 5 5 5 5 5 5 5 6 6 6 6 7 7 8 8 9 9 9 9 9 9 9 9 10 10 11 11 11 11 12 12 12 12 12 12
6 6 6 6 6 6 6 6 6 5 5 5 5 5 5 6 6 6 6 7 7 8 8 9 9 9 9 9 9 9 9 9 10 10 11 11 11 11 11 11 11 11 12
6 6 6 6 6 6 6 6 6 5 5 5 5 5 5 6 6 6 6 6 7 7 8 8 8 8 8 8 8 9 9 9 10 10 10 11 11 11 11 11 11 11 11
6 6 6 6 6 6 6 6 6 5 5 5 5 5 5 5 6 6 6 6 7 7 7 7 8 8 8 8 8 8 9 9 10 10 10 11 11 11 11 10 10 10 10
6 6 6 6 7 6 6 6 6 6 5 5 5 5 5 5 6 6 6 6 7 7 7 7 7 8 8 8 8 8 9 9 9 10 10 10 11 10 10 10 10 10 10
6 6 6 7 7 7 6 6 6 6 5 5 5 5 5 5 6 6 6 6 7 7 7 7 8 8 8 9 9 9 9 9 9 10 10 10 10 10 10 10 10 10 10
6 6 6 7 7 7 7 6 6 6 6 6 6 5 6 6 6 6 6 6 6 7 7 7 8 8 9 9 9 9 9 9 9 10 10 10 10 10 9 9 9 9 10
7 7 7 7 7 7 7 7 6 6 6 6 6 6 6 6 6 6 6 6 6 6 7 8 8 8 9 9 9 9 9 9 9 9 9 10 10 10 9 9 9 9 9
7 7 7 7 7 7 7 7 7 6 6 6 6 6 6 6 6 6 6 6 6 7 7 8 8 8 9 9 8 8 9 9 9 9 9 9 9 10 9 9 9 9 10
7 7 7 7 7 8 7 7 7 6 6 6 6 6 6 6 6 6 6 6 7 7 7 8 8 8 8 8 8 8 8 8 9 9 9 9 9 9 9 9 9 9 10
7 7 7 8 8 8 7 7 7 6 6 6 6 6 6 6 6 6 6 6 7 7 7 7 8 8 8 8 8 8 8 8 8 8 9 9 9 9 9 9 10 10 10
7 7 8 8 8 8 7 7 7 7 7 6 6 6 6 6 6 6 6 7 7 7 7 7 8 8 8 8 8 8 8 8 8 8 9 9 9 9 9 10 10 10 10
7 8 8 8 8 8 8 8 7 7 7 7 7 7 6 6 6 6 7 7 7 7 7 7 7 7 8 7 7 8 8 8 8 8 9 9 9 9 10 10 10 10 11
8 8 8 8 8 8 8 8 8 7 7 7 7 7 7 7 7 6 6 7 7 7 7 7 7 7 7 7 7 8 8 8 8 8 9 9 9 10 10 10 10 11 11
8 8 8 8 8 8 8 8 8 8 8 7 7 7 7 7 7 7 7 7 7 7 7 7 7 7 7 7 8 8 8 8 8 8 9 9 10 10 10 10 10 11 11
8 8 8 8 8 8 8 8 8 8 8 8 8 8 8 7 7 7 7 7 7 7 7 7 7 7 7 8 8 8 8 8 9 9 10 10 10 10 10 11 11 11 11
Wind_Speed
17 16 16 16 16 16 16 16 15 15 15 15 16 15 15 14 12 11 11 9 10 9 9 11 13 13 10 9 9 10 10 9 8 6 6 7 7 6 6 7 7 8 10
17 17 17 17 17 17 17 17 16 16 16 16 16 17 17 16 15 14 13 12 11 11 11 10 11 11 13 11 9 11 10 10 9 9 7 7 7 8 8 7 6 8 9
18 18 18 18 18 18 17 17 17 17 16 16 16 17 18 18 17 16 15 14 13 12 12 11 11 10 12 11 12 11 10 10 10 9 9 7 6 8 8 7 8 7 8
18 18 18 18 18 18 18 18 17 17 17 17 17 17 18 18 18 18 17 16 14 13 12 12 11 11 11 10 11 12 11 12 11 10 8 9 8 9 9 8 7 6 6
18 19 19 19 18 18 18 18 18 17 18 17 17 17 18 17 18 18 17 17 16 14 13 13 13 12 10 8 8 8 10 10 10 11 10 9 9 10 9 8 8 7 5
18 19 19 18 18 18 18 18 18 18 18 17 17 18 18 17 16 15 16 17 16 16 14 13 12 12 12 11 10 9 9 10 11 11 10 11 13 12 11 11 11 9 5
18 18 18 18 18 18 19 19 18 18 18 18 17 18 18 17 14 14 16 17 17 16 15 13 12 12 13 12 12 12 12 11 11 10 11 12 13 14 14 15 13 11 7
18 18 18 18 19 19 19 18 18 17 16 16 16 17 17 17 15 15 15 18 18 16 15 15 14 12 12 11 11 12 12 11 11 11 11 10 10 12 14 14 13 10 10
18 18 18 18 19 19 18 18 17 15 15 15 15 15 16 15 14 15 15 14 16 18 16 15 15 14 10 9 11 12 12 11 11 11 8 5 4 9 11 12 13 13 10
18 18 18 18 18 18 18 17 15 14 14 14 14 13 14 14 13 15 16 13 15 15 14 14 13 12 10 12 12 11 12 12 10 10 9 7 9 13 15 15 16 14 11
18 18 18 17 17 17 16 15 14 13 12 12 12 11 11 11 12 15 17 13 14 14 13 13 13 15 11 12 11 11 10 9 10 10 10 10 10 11 13 13 12 13 13
17 17 18 17 15 14 15 14 12 11 10 9 9 9 8 8 10 13 17 16 13 13 12 11 10 17 14 12 11 9 7 7 9 9 9 10 11 12 11 10 8 6 6
17 17 17 17 15 13 13 12 11 8 7 6 6 6 5 5 8 12 15 15 13 11 9 5 8 15 13 11 11 9 9 9 10 10 10 10 10 11 11 9 9 9 9
16 16 15 14 14 13 10 9 8 7 6 5 4 4 4 4 6 9 10 11 12 11 9 8 11 11 9 7 8 10 10 10 10 10 10 9 10 11 12 12 12 11 10
15 14 14 13 12 11 9 7 8 6 5 5 4 3 3 3 4 6 8 10 11 12 11 9 10 10 11 11 10 9 10 10 10 9 9 10 11 12 12 12 12 12 11
13 12 11 11 10 9 9 7 2 3 3 3 4 4 2 1 5 6 4 3 4 9 10 10 10 11 11 11 10 10 9 10 9 9 10 11 12 13 13 12 12 12 13
13 12 11 11 10 9 8 7 5 1 1 1 1 1 2 2 4 6 6 6 7 10 10 10 10 10 10 9 9 9 9 9 8 9 10 12 13 14 14 14 13 13 13
14 12 11 10 10 9 8 6 5 5 3 0 3 3 2 4 5 7 9 10 7 9 10 9 9 9 9 9 8 8 8 8 8 8 10 12 13 14 15 15 14 15 14
12 10 10 10 9 8 7 6 5 5 4 2 1 4 5 6 7 8 10 8 9 10 10 8 8 8 8 8 7 7 7 8 8 8 9 13 13 14 14 15 14 16 14
10 11 11 10 9 8 7 6 5 4 3 2 1 2 4 5 5 6 7 7 7 8 9 8 7 7 7 6 7 7 7 8 9 9 9 11 12 13 15 16 15 15 13
10 10 10 9 8 8 8 6 6 4 3 2 1 2 0 3 4 5 6 6 6 7 7 7 6 6 6 6 6 7 9 8 9 9 10 11 12 12 13 13 15 14 14
9 9 8 8 7 8 7 6 5 5 4 3 2 3 1 2 2 3 4 4 5 5 5 6 6 6 6 6 6 7 9 9 9 10 11 11 12 13 14 14 14 14 14
9 9 8 7 6 6 6 7 7 6 5 4 3 2 2 1 2 2 2 3 3 3 4 4 4 4 5 5 6 7 9 10 10 11 12 12 13 13 13 14 16 16 15
10 9 8 7 7 7 6 7 6 6 6 5 3 2 1 1 1 1 1 2 2 3 3 3 4 6 7 7 6 7 8 10 11 12 14 14 14 13 13 13 14 16 15
9 8 7 7 7 7 6 6 6 6 6 5 4 3 3 2 2 2 2 2 3 4 4 4 4 6 9 10 9 9 10 9 8 10 12 13 15 14 14 14 14 14 14
8 8 7 6 6 7 7 7 8 8 7 6 5 5 4 4 4 4 4 4 5 5 4 4 6 8 10 10 11 12 10 8 7 7 10 13 14 14 15 13 16 14 15
Wind_Direction
310 309 305 301 299 296 289 284 281 277 273 266 260 253 248 243 235 231 239 239 238 243 254 254 246 240 235 231 228 225 224 227 228 208 172 149 150 147 132 121 118 106 94
310 307 303 301 298 294 291 289 286 280 273 266 260 255 249 244 238 233 234 235 237 239 238 245 254 247 236 232 230 226 223 222 223 214 188 168 162 151 136 128 118 106 101
310 307 304 302 300 297 295 291 286 280 274 269 262 256 251 247 242 236 234 233 234 235 237 238 242 250 245 233 227 229 225 220 222 216 201 173 159 151 137 125 115 113 108
309 306 303 301 299 297 294 291 287 281 275 269 263 257 251 247 242 237 232 231 232 232 231 232 234 236 243 242 231 227 226 221 216 218 202 178 164 159 151 145 134 130 123
309 306 304 303 301 298 294 291 287 282 276 271 264 257 250 245 240 233 231 229 228 230 228 227 227 226 233 240 242 232 228 222 215 215 205 187 174 169 168 162 145 132 121
308 306 306 304 301 298 295 292 288 283 278 274 267 259 251 244 233 223 226 231 227 226 227 224 222 214 220 221 238 246 247 237 223 217 209 199 186 179 170 163 153 153 150
307 304 303 301 300 297 295 292 288 284 279 273 267 260 253 246 234 216 217 230 229 225 224 222 225 215 204 217 215 224 236 252 254 241 226 213 192 180 172 170 171 172 153
306 304 304 303 301 300 296 292 288 283 279 274 267 260 253 243 220 211 209 225 231 226 222 220 223 227 212 214 216 218 221 224 233 237 239 230 207 184 179 174 162 137 124
307 308 308 306 304 302 299 296 293 287 280 273 267 260 252 242 215 204 203 221 225 226 222 219 218 222 195 188 222 224 222 221 222 230 247 253 214 172 167 158 151 149 147
310 310 309 305 302 302 300 298 295 289 282 276 268 258 249 241 214 199 199 218 222 221 219 218 213 223 180 179 221 227 224 220 215 206 210 204 189 170 168 174 169 165 154
310 309 307 305 304 302 301 300 297 292 285 277 270 262 251 239 212 197 198 213 219 221 217 213 208 185 184 187 220 234 232 225 214 208 201 196 185 180 181 184 183 174 168
309 308 308 308 308 306 305 305 303 298 291 285 275 263 245 229 212 195 197 210 226 224 221 216 196 166 178 190 213 226 221 218 219 210 201 195 184 180 181 179 172 162 156
309 309 310 311 311 309 309 310 309 304 294 288 277 262 248 224 194 185 193 203 218 229 224 205 152 157 174 198 215 209 208 217 216 209 202 196 185 172 163 150 134 123 120
310 311 312 313 315 318 316 315 313 312 307 298 288 266 248 221 196 187 192 196 202 214 216 166 149 163 204 222 195 202 216 218 215 211 200 186 168 159 158 153 146 140 135
313 314 314 316 319 320 321 323 324 333 332 309 302 293 266 227 193 177 189 192 197 198 192 193 197 195 203 211 213 211 209 207 209 208 193 178 165 159 158 156 152 152 152
313 315 315 317 319 320 323 328 330 310 330 312 297 309 311 81 131 149 158 156 152 164 187 199 203 204 207 211 212 208 206 205 203 196 187 176 165 159 157 157 160 160 156
313 315 314 315 318 321 325 331 336 320 207 164 341 331 5 76 139 159 163 158 158 170 200 207 207 208 209 211 213 211 207 200 194 189 183 174 164 159 159 161 164 162 159
318 319 315 315 320 324 328 331 336 337 334 131 125 105 125 137 149 155 155 161 173 201 213 212 209 208 209 211 211 208 202 191 186 183 177 169 164 160 161 163 166 165 162
323 326 325 323 325 331 335 334 340 345 346 12 100 118 124 138 145 160 178 197 191 198 210 215 213 211 210 209 208 203 195 185 179 173 173 166 163 161 162 165 165 162 160
325 321 321 325 335 344 348 350 356 3 5 22 73 121 148 166 163 171 199 210 203 201 206 212 214 213 209 208 202 193 184 175 170 167 166 162 160 161 161 162 160 161 164
327 327 321 328 348 357 2 4 3 6 14 29 61 87 285 191 175 180 193 203 205 203 204 207 208 205 200 198 195 187 176 166 163 161 159 159 159 158 158 158 159 164 168
328 331 339 346 351 1 4 6 15 21 27 47 77 115 186 226 182 198 201 204 212 212 207 206 203 200 193 185 184 175 163 157 159 159 156 157 156 156 157 159 162 168 169
331 335 344 352 1 12 9 12 19 27 35 43 53 85 134 159 165 184 202 207 206 204 196 191 189 186 174 169 170 166 159 157 157 156 154 154 153 156 159 161 163 164 166
338 342 349 359 9 22 23 22 25 28 32 37 39 46 74 116 148 179 214 193 182 180 175 171 175 170 161 160 158 158 156 153 156 159 157 154 154 156 156 158 162 164 165
346 350 355 4 8 19 26 30 31 34 38 38 41 53 64 71 93 108 112 117 128 135 144 152 159 160 155 152 149 142 133 140 157 157 160 157 154 154 155 160 161 162 163
352 355 359 8 9 15 25 33 36 40 44 48 54 63 67 71 83 91 94 97 106 115 127 136 140 142 142 142 134 127 130 138 148 164 159 154 153 154 157 159 159 162 161
Height
1479 1476 1472 1469 1467 1464 1462 1460 1458 1457 1456 1455 1455 1455 1455 1455 1455 1455 1455 1455 1455 1456 1457 1459 1461 1464 1467 1470 1473 1475 1478 1480 1483 1485 1486 1486 1486 1488 1490 1491 1493 1494 1495
1473 1469 1465 1462 1459 1456 1454 1452 1450 1448 1447 1447 1447 1447 1447 1448 1448 1448 1449 1450 1450 1450 1451 1452 1454 1457 1459 1462 1465 1469 1472 1475 1478 1480 1482 1483 1484 1486 1487 1489 1491 1493 1494
1467 1462 1458 1455 1451 1448 1445 1443 1441 1439 1438 1437 1437 1437 1438 1439 1440 1441 1442 1443 1444 1445 1446 1446 1447 1449 1452 1455 1459 1462 1465 1469 1472 1475 1477 1479 1480 1483 1485 1487 1489 1491 1493
1460 1456 1452 1448 1444 1440 1437 1434 1432 1430 1428 1427 1427 1427 1428 1430 1431 1433 1435 1436 1438 1439 1440 1441 1442 1443 1445 1448 1451 1455 1459 1463 1466 1469 1472 1474 1476 1479 1482 1484 1487 1489 1492
1454 1449 1445 1441 1436 1433 1429 1426 1423 1421 1419 1418 1417 1417 1418 1419 1422 1424 1427 1429 1431 1433 1434 1435 1436 1438 1440 1442 1445 1448 1453 1456 1460 1463 1466 1469 1472 1474 1477 1481 1484 1487 1490
1447 1443 1438 1433 1429 1425 1421 1418 1414 1411 1409 1408 1407 1407 1407 1409 1411 1414 1418 1421 1424 1426 1428 1429 1431 1432 1434 1436 1439 1442 1446 1449 1454 1457 1460 1463 1466 1469 1473 1477 1480 1484 1488
1441 1436 1431 1427 1422 1417 1413 1409 1405 1402 1399 1397 1396 1396 1397 1398 1401 1404 1408 1413 1416 1419 1421 1423 1426 1427 1429 1431 1433 1436 1439 1443 1447 1452 1455 1458 1461 1464 1467 1472 1477 1481 1484
1435 1430 1425 1420 1415 1410 1405 1400 1396 1393 1390 1387 1386 1386 1386 1388 1391 1395 1399 1404 1408 1411 1414 1417 1420 1422 1424 1426 1429 1431 1433 1437 1441 1445 1450 1454 1457 1460 1463 1468 1473 1477 1482
1429 1424 1419 1413 1408 1402 1397 1392 1388 1384 1381 1378 1377 1376 1377 1379 1382 1386 1390 1395 1399 1403 1407 1410 1414 1417 1419 1420 1423 1426 1428 1431 1435 1439 1444 1448 1451 1455 1459 1464 1468 1473 1478
1424 1418 1413 1407 1401 1395 1390 1385 1380 1376 1373 1370 1369 1368 1369 1371 1374 1378 1382 1387 1392 1396 1400 1403 1407 1411 1413 1415 1418 1420 1423 1426 1429 1434 1438 1442 1446 1450 1455 1460 1464 1468 1473
1418 1412 1407 1401 1395 1389 1384 1379 1374 1370 1366 1364 1362 1361 1362 1364 1367 1370 1375 1380 1385 1389 1393 1397 1401 1404 1408 1410 1413 1416 1418 1421 1424 1428 1432 1436 1441 1445 1450 1455 1460 1464 1469
1413 1407 1401 1396 1390 1384 1379 1373 1369 1365 1361 1359 1357 1356 1356 1358 1361 1364 1369 1374 1379 1384 1388 1392 1396 1399 1402 1405 1408 1410 1413 1416 1420 1423 1426 1431 1435 1440 1445 1451 1456 1461 1466
1408 1402 1397 1391 1385 1380 1374 1369 1365 1361 1358 1355 1353 1352 1353 1354 1356 1360 1364 1369 1374 1379 1384 1388 1391 1394 1398 1401 1403 1405 1408 1411 1414 1418 1421 1426 1431 1436 1441 1446 1451 1457 1463
1404 1398 1393 1387 1382 1376 1371 1366 1362 1358 1355 1353 1351 1350 1350 1351 1353 1356 1360 1365 1370 1375 1380 1384 1387 1391 1394 1397 1399 1400 1403 1406 1409 1412 1417 1421 1426 1431 1436 1441 1447 1453 1459
1400 1395 1390 1385 1379 1373 1369 1364 1360 1357 1354 1352 1350 1349 1350 1350 1352 1355 1357 1362 1366 1371 1376 1380 1384 1387 1390 1392 1395 1396 1399 1401 1404 1407 1412 1416 1421 1426 1432 1438 1444 1450 1456
1396 1391 1387 1382 1377 1371 1367 1363 1359 1356 1353 1351 1350 1349 1349 1350 1351 1354 1357 1361 1365 1369 1373 1376 1379 1382 1385 1388 1390 1392 1394 1396 1399 1403 1407 1411 1416 1421 1428 1435 1441 1448 1454
1394 1389 1384 1379 1374 1370 1365 1362 1358 1355 1353 1351 1350 1349 1349 1350 1351 1353 1356 1359 1362 1366 1370 1373 1376 1379 1381 1384 1386 1388 1390 1392 1395 1398 1403 1407 1412 1418 1425 1432 1438 1445 1452
1391 1387 1382 1377 1373 1368 1364 1360 1357 1355 1352 1351 1350 1349 1349 1350 1351 1353 1355 1358 1361 1364 1368 1370 1373 1375 1378 1380 1382 1384 1386 1388 1391 1394 1399 1403 1409 1415 1422 1429 1436 1443 1449
1389 1385 1380 1376 1372 1368 1364 1360 1357 1354 1352 1351 1350 1349 1349 1350 1351 1353 1354 1357 1360 1362 1365 1368 1370 1373 1375 1377 1379 1380 1382 1385 1388 1392 1396 1401 1406 1413 1420 1427 1434 1441 1447
1388 1384 1380 1376 1372 1368 1364 1360 1357 1354 1352 1351 1350 1349 1349 1350 1351 1352 1353 1356 1358 1360 1363 1365 1368 1370 1372 1374 1376 1377 1379 1382 1386 1389 1394 1399 1405 1412 1418 1425 1432 1439 1446
1388 1384 1380 1376 1373 1369 1365 1361 1358 1355 1353 1352 1351 1350 1350 1351 1351 1352 1353 1355 1357 1359 1361 1363 1365 1367 1370 1371 1373 1375 1377 1380 1384 1388 1393 1398 1404 1411 1417 1424 1431 1438 1445
1388 1384 1381 1377 1374 1370 1366 1363 1360 1357 1355 1353 1352 1351 1350 1351 1351 1352 1353 1354 1356 1358 1360 1362 1364 1366 1367 1369 1370 1372 1375 1379 1384 1388 1393 1399 1405 1411 1418 1425 1431 1438 1444
1388 1385 1382 1379 1376 1372 1369 1366 1363 1360 1358 1356 1354 1353 1352 1352 1352 1353 1353 1354 1355 1357 1358 1360 1362 1364 1366 1368 1370 1372 1376 1380 1384 1389 1394 1400 1406 1413 1419 1425 1431 1437 1443
1390 1387 1384 1381 1378 1375 1372 1369 1366 1363 1361 1358 1357 1355 1354 1354 1354 1354 1354 1354 1355 1356 1358 1359 1361 1363 1365 1368 1371 1374 1378 1382 1387 1391 1397 1403 1408 1414 1420 1426 1432 1437 1442
1391 1388 1385 1383 1380 1378 1375 1372 1369 1367 1364 1362 1360 1358 1357 1356 1355 1355 1354 1354 1355 1356 1358 1359 1362 1364 1366 1370 1373 1376 1380 1385 1390 1395 1401 1407 1411 1416 1421 1427 1432 1437 1442
1392 1390 1387 1385 1383 1381 1378 1376 1374 1371 1369 1366 1364 1362 1360 1359 1358 1358 1357 1357 1358 1358 1360 1362 1364 1367 1370 1373 1376 1380 1384 1389 1394 1400 1405 1410 1414 1419 1423 1428 1433 1438 1442